This demonstration page uses our WeatherBlox Daily Observations layout. Learn more.

Left ArrowRight Arrow

39.92423, -83.80882

Hourly Observations for March 21, 2022

Temp ( °F °C ) Dew Point ( °F °C ) Humidity (%) Winds ( mph kmh ) Pressure ( in mb ) Visibility ( mi km ) Precip ( " mm )
12:56 am 00:56 Mostly Clear 43 6.1 35 1.7 74 74 S 3 6 30.22 1023 10 16 0.00 0.00
1:56 am 01:56 Mostly Cloudy 39 3.9 35 1.7 86 86 SSE 5 7 30.22 1023 10 16 0.00 0.00
2:56 am 02:56 Partly Cloudy 44 6.7 34 1.1 68 68 SSW 6 9 30.21 1023 10 16 0.00 0.00
3:56 am 03:56 Clear 44 6.7 34 1.1 68 68 SSW 8 13 30.20 1023 10 16 0.00 0.00
4:56 am 04:56 Clear 42 5.6 34 1.1 73 73 SSW 7 11 30.20 1023 10 16 0.00 0.00
5:56 am 05:56 Clear 41 5 34 1.1 76 76 SW 6 9 30.22 1024 10 16 0.00 0.00
6:56 am 06:56 Clear 40 4.4 34 1.1 79 79 SW 6 9 30.24 1024 10 16 0.00 0.00
7:56 am 07:56 Sunny 40 4.4 33 0.6 77 77 SW 3 6 30.26 1025 10 16 0.00 0.00
8:56 am 08:56 Sunny 42 5.6 38 3.3 85 85 Calm 30.28 1025 10 16 0.00 0.00
9:56 am 09:56 Sunny 52 11.1 38 3.3 59 59 WSW 12 19 30.27 1025 10 16 0.00 0.00
10:56 am 10:56 Sunny 58 14.4 39 3.9 50 50 W 9 15 30.26 1025 10 16 0.00 0.00
11:56 am 11:56 Sunny 60 15.6 35 1.7 39 39 W 12 19 30.26 1025 10 16 0.00 0.00
12:56 pm 12:56 Sunny 63 17.2 36 2.2 37 37 WSW 10 17 30.24 1024 10 16 0.00 0.00
1:56 pm 13:56 Sunny 66 18.9 39 3.9 37 37 W 9 15 30.23 1024 10 16 0.00 0.00
2:56 pm 14:56 Sunny 67 19.4 34 1.1 30 30 WSW 12 19 30.19 1022 10 16 0.00 0.00
3:56 pm 15:56 Sunny 68 20 34 1.1 28 28 SSW 12 19 30.16 1021 10 16 0.00 0.00
4:56 pm 16:56 Sunny 68 20 35 1.7 30 30 SW 10 17 30.13 1020 10 16 0.00 0.00
5:56 pm 17:56 Sunny 68 20 35 1.7 30 30 WSW 9 15 30.11 1020 10 16 0.00 0.00
6:56 pm 18:56 Sunny 66 18.9 36 2.2 33 33 WSW 3 6 30.12 1020 10 16 0.00 0.00
7:56 pm 19:56 Clear 60 15.6 35 1.7 39 39 Calm 30.13 1020 10 16 0.00 0.00
8:56 pm 20:56 Clear 56 13.3 35 1.7 46 46 SSE 6 9 30.12 1020 10 16 0.00 0.00
9:56 pm 21:56 Clear 51 10.6 37 2.8 59 59 SSE 5 7 30.11 1020 10 16 0.00 0.00
10:56 pm 22:56 Clear 56 13.3 35 1.7 46 46 S 5 7 30.12 1020 10 16 0.00 0.00
11:56 pm 23:56 Clear 56 13.3 34 1.1 44 44 S 5 7 30.10 1019 10 16 0.00 0.00

Powered by AerisWeather